Location: Beaurevoir
(49.9971°N, 3.3085°E)
Time: 14:44:30
(UTC+00:00)

Cosmos 407 Rocket - Pass Details

Date: 23 May 2024
Orbit: 742 x 783 km, 74.0° (Epoch: 16 June)

Event Time Altitude Azimuth Distance (km) Brightness Sun altitude
Exits shadow 00:44:27 26° 231° (SW) 1,493 4.5 -18.1°
Maximum altitude 00:47:17 55° 299° (WNW) 926 3.9 -18.0°
Drops below altitude 10° 00:52:27 10° 17° (NNE) 2,315 7.3 -17.7°
Sets 00:54:53 0° 22° (NNE) 3,239 8.5 -17.6°
